Hourly Weather Bárna

Today, 6 May, Thursday

Time Temperature Precipitation Wind Pressure Humidity
00:00 +4°C° 0 mm 4 mps 717 mmHg 87%
01:00 +4°C° 0 mm 4 mps 717 mmHg 88%
02:00 +3°C° 0 mm 3 mps 718 mmHg 88%
03:00 +3°C° 0 mm 3 mps 718 mmHg 89%
04:00 +3°C° 0 mm 2 mps 718 mmHg 89%
05:00 +3°C° 0 mm 3 mps 719 mmHg 84%
06:00 +4°C° 0 mm 3 mps 720 mmHg 78%
07:00 +5°C° 0 mm 4 mps 720 mmHg 71%
08:00 +6°C° 0 mm 4 mps 721 mmHg 64%
09:00 +7°C° 0 mm 5 mps 721 mmHg 58%
10:00 +9°C° 0 mm 5 mps 721 mmHg 51%
11:00 +9°C° 0 mm 5 mps 721 mmHg 51%
12:00 +10°C° 0 mm 5 mps 721 mmHg 51%
13:00 +10°C° 0 mm 5 mps 721 mmHg 50%
14:00 +10°C° 0 mm 5 mps 721 mmHg 52%
15:00 +11°C° 0 mm 4 mps 720 mmHg 54%
16:00 +11°C° 0 mm 4 mps 720 mmHg 55%
17:00 +10°C° 0 mm 3 mps 720 mmHg 60%
18:00 +9°C° 0 mm 2 mps 719 mmHg 66%
19:00 +9°C° 0 mm 1 mps 719 mmHg 71%
20:00 +9°C° 0 mm 1 mps 718 mmHg 71%
21:00 +8°C° 0 mm 1 mps 718 mmHg 71%
22:00 +8°C° 0 mm 1 mps 718 mmHg 71%
23:00 +8°C° 0.3 mm 1 mps 717 mmHg 77%

Tomorrow, 7 May, Friday

Time Temperature Precipitation Wind Pressure Humidity
00:00 +7°C° 0.3 mm 1 mps 717 mmHg 84%
01:00 +7°C° 0.3 mm 1 mps 717 mmHg 90%
02:00 +7°C° 0.1 mm 1 mps 716 mmHg 91%
03:00 +7°C° 0.1 mm 1 mps 716 mmHg 92%
04:00 +6°C° 0.1 mm 0 mps 716 mmHg 93%
05:00 +8°C° 0 mm 1 mps 716 mmHg 92%
06:00 +9°C° 0 mm 1 mps 716 mmHg 90%
07:00 +9°C° 0 mm 2 mps 716 mmHg 89%
08:00 +10°C° 0 mm 3 mps 716 mmHg 80%
09:00 +11°C° 0 mm 4 mps 716 mmHg 71%
10:00 +13°C° 0 mm 6 mps 716 mmHg 62%
11:00 +11°C° 0.1 mm 6 mps 717 mmHg 65%
12:00 +11°C° 0.1 mm 6 mps 717 mmHg 69%
13:00 +10°C° 0.1 mm 6 mps 717 mmHg 73%
14:00 +10°C° 0 mm 6 mps 717 mmHg 70%
15:00 +10°C° 0 mm 5 mps 717 mmHg 68%
16:00 +10°C° 0 mm 5 mps 717 mmHg 65%
17:00 +9°C° 0 mm 5 mps 718 mmHg 63%
18:00 +8°C° 0 mm 5 mps 718 mmHg 62%
19:00 +7°C° 0 mm 5 mps 719 mmHg 60%
20:00 +6°C° 0 mm 4 mps 720 mmHg 62%
21:00 +5°C° 0 mm 4 mps 720 mmHg 64%
22:00 +4°C° 0 mm 3 mps 721 mmHg 66%
23:00 +3°C° 0 mm 3 mps 721 mmHg 69%

Day after tomorrow, 8 May, Saturday

Time Temperature Precipitation Wind Pressure Humidity
00:00 +3°C° 0 mm 3 mps 722 mmHg 72%
01:00 +2°C° 0 mm 3 mps 722 mmHg 75%
02:00 +1°C° 0 mm 3 mps 722 mmHg 78%
03:00 +1°C° 0 mm 3 mps 723 mmHg 82%
04:00 +1°C° 0 mm 2 mps 723 mmHg 85%
05:00 +2°C° 0 mm 2 mps 723 mmHg 79%
06:00 +4°C° 0 mm 2 mps 724 mmHg 72%
07:00 +5°C° 0 mm 2 mps 725 mmHg 66%
08:00 +7°C° 0 mm 2 mps 725 mmHg 58%
09:00 +8°C° 0 mm 2 mps 725 mmHg 50%
10:00 +10°C° 0 mm 2 mps 726 mmHg 42%
11:00 +11°C° 0 mm 3 mps 725 mmHg 40%
12:00 +12°C° 0 mm 3 mps 725 mmHg 38%
13:00 +13°C° 0 mm 3 mps 725 mmHg 37%
14:00 +13°C° 0 mm 4 mps 725 mmHg 38%
15:00 +13°C° 0 mm 4 mps 725 mmHg 39%
16:00 +13°C° 0 mm 4 mps 725 mmHg 40%
17:00 +11°C° 0 mm 3 mps 725 mmHg 48%
18:00 +9°C° 0 mm 3 mps 725 mmHg 57%
19:00 +7°C° 0 mm 2 mps 725 mmHg 65%
20:00 +6°C° 0 mm 2 mps 726 mmHg 66%
21:00 +6°C° 0 mm 1 mps 726 mmHg 67%
22:00 +5°C° 0 mm 1 mps 726 mmHg 68%
23:00 +5°C° 0 mm 1 mps 726 mmHg 69%

9 May, Sunday

Time Temperature Precipitation Wind Pressure Humidity
00:00 +4°C° 0 mm 1 mps 726 mmHg 70%
01:00 +3°C° 0 mm 0 mps 726 mmHg 71%
02:00 +3°C° 0 mm 0 mps 727 mmHg 72%
03:00 +2°C° 0 mm 0 mps 727 mmHg 73%
04:00 +2°C° 0 mm 0 mps 727 mmHg 74%
05:00 +5°C° 0 mm 1 mps 727 mmHg 69%
06:00 +7°C° 0 mm 1 mps 727 mmHg 65%
07:00 +9°C° 0 mm 1 mps 728 mmHg 60%
08:00 +10°C° 0 mm 2 mps 728 mmHg 55%
09:00 +12°C° 0 mm 2 mps 728 mmHg 50%
10:00 +13°C° 0 mm 3 mps 728 mmHg 45%
11:00 +14°C° 0 mm 3 mps 727 mmHg 45%
12:00 +16°C° 0 mm 3 mps 727 mmHg 44%
13:00 +15°C° 0 mm 4 mps 727 mmHg 43%
14:00 +15°C° 0 mm 4 mps 727 mmHg 45%
15:00 +15°C° 0 mm 4 mps 727 mmHg 47%
16:00 +16°C° 0 mm 3 mps 726 mmHg 48%
17:00 +13°C° 0 mm 3 mps 726 mmHg 57%
18:00 +12°C° 0 mm 2 mps 726 mmHg 65%
19:00 +9°C° 0 mm 2 mps 726 mmHg 74%
20:00 +8°C° 0 mm 2 mps 725 mmHg 76%
21:00 +8°C° 0 mm 2 mps 725 mmHg 77%
22:00 +8°C° 0 mm 1 mps 725 mmHg 79%
23:00 +7°C° 0 mm 1 mps 725 mmHg 80%

10 May, Monday

Time Temperature Precipitation Wind Pressure Humidity
00:00 +7°C° 0 mm 1 mps 725 mmHg 81%
01:00 +7°C° 0 mm 1 mps 725 mmHg 82%
02:00 +6°C° 0 mm 1 mps 725 mmHg 82%
03:00 +6°C° 0 mm 1 mps 725 mmHg 82%
04:00 +6°C° 0 mm 1 mps 725 mmHg 83%
05:00 +7°C° 0 mm 2 mps 725 mmHg 76%
06:00 +9°C° 0 mm 2 mps 725 mmHg 70%
07:00 +12°C° 0 mm 2 mps 725 mmHg 63%
08:00 +12°C° 0 mm 3 mps 725 mmHg 60%
09:00 +14°C° 0 mm 3 mps 725 mmHg 57%
10:00 +17°C° 0 mm 4 mps 725 mmHg 54%
11:00 +18°C° 0 mm 4 mps 725 mmHg 54%
12:00 +19°C° 0 mm 5 mps 725 mmHg 53%
13:00 +20°C° 0 mm 5 mps 724 mmHg 53%
14:00 +20°C° 0 mm 5 mps 724 mmHg 54%
15:00 +20°C° 0 mm 4 mps 724 mmHg 56%
16:00 +20°C° 0 mm 4 mps 724 mmHg 58%
17:00 +18°C° 0 mm 3 mps 724 mmHg 66%
18:00 +17°C° 0 mm 3 mps 723 mmHg 75%
19:00 +15°C° 0 mm 2 mps 723 mmHg 84%
20:00 +14°C° 0 mm 2 mps 723 mmHg 86%
21:00 +13°C° 0 mm 1 mps 723 mmHg 88%
22:00 +12°C° 0 mm 1 mps 723 mmHg 91%
23:00 +11°C° 0 mm 1 mps 723 mmHg 90%

11 May, Tuesday

Time Temperature Precipitation Wind Pressure Humidity
00:00 +11°C° 0 mm 1 mps 723 mmHg 89%
01:00 +10°C° 0 mm 1 mps 723 mmHg 89%
02:00 +10°C° 0 mm 1 mps 723 mmHg 87%
03:00 +9°C° 0 mm 1 mps 723 mmHg 86%
04:00 +9°C° 0 mm 1 mps 723 mmHg 85%
05:00 +11°C° 0 mm 1 mps 723 mmHg 77%
06:00 +13°C° 0 mm 1 mps 723 mmHg 70%
07:00 +14°C° 0 mm 1 mps 723 mmHg 62%
08:00 +16°C° 0 mm 2 mps 723 mmHg 58%
09:00 +18°C° 0 mm 2 mps 723 mmHg 55%
10:00 +20°C° 0 mm 2 mps 723 mmHg 51%
11:00 +20°C° 0 mm 3 mps 723 mmHg 50%
12:00 +21°C° 0 mm 3 mps 723 mmHg 50%
13:00 +22°C° 0 mm 3 mps 723 mmHg 50%
14:00 +21°C° 0 mm 3 mps 722 mmHg 52%
15:00 +21°C° 0 mm 3 mps 722 mmHg 54%
16:00 +21°C° 0 mm 3 mps 722 mmHg 57%
17:00 +19°C° 0 mm 2 mps 722 mmHg 65%
18:00 +17°C° 0 mm 2 mps 721 mmHg 73%
19:00 +15°C° 0 mm 1 mps 721 mmHg 82%
20:00 +15°C° 0 mm 1 mps 721 mmHg 84%
21:00 +14°C° 0 mm 1 mps 721 mmHg 86%
22:00 +13°C° 0 mm 1 mps 721 mmHg 88%
23:00 +13°C° 0 mm 1 mps 720 mmHg 88%
Show more